Tracking 29892 objects as of 21-Nov-2024
HD Live streaming from Space Station
objects crossing your sky now

SL-8 R/B

Track SL-8 R/B now!
10-day predictions
SL-8 R/B is classified as:


NORAD ID: 15483
Int'l Code: 1985-006B
Perigee: 762.0 km
Apogee: 786.9 km
Inclination: 74.0 °
Period: 100.2 minutes
Semi major axis: 7145 km
RCS: 4.7342 m2 (large)
Launch date: January 17, 1985
Source: Commonwealth of Independent States (former USSR) (CIS)
Launch site: PLESETSK MISSILE AND SPACE COMPLEX (PKMTR)

Note: This is a ROCKET BODY
Your satellite tracking list
Your tracking list is empty




NASA's NSSDC Master Catalog

Two Line Element Set (TLE):
1 15483U 85006B   24325.70768554  .00000537  00000-0  18833-3 0  9999
2 15483  74.0471  53.0224 0017403  83.6847  68.1812 14.37338761 85915
Source of the keplerian elements: AFSPC